Walla Walla, WA
on Monday, December 17, 2012

Monday
Previous Day Next Day
Daily Summary
 ActualAverage (KPDT)Record (KPDT)
Temperature
Mean Temperature °F 32°F  
Max Temperature 50°F 39°F 62°F (1917)
Min Temperature 34°F 26°F -12°F (1964)
Degree Days
Heating Degree Days 22 33  
Month to date heating degree days 529  
Since 1 July heating degree days 1782  
Cooling Degree Days 0 0  
Month to date cooling degree days 0  
Year to date cooling degree days 636  
Moisture
Dew Point 30°F   
Average Humidity 59    
Maximum Humidity 73    
Minimum Humidity 48    
Precipitation
Precipitation 0.00 in 0.04 in 0.91 in (1915)
Month to date precipitation 0.81  
Year to date precipitation 12.00  
Snow
Snow 0.00 in 0.20 in 2.80 in (1984)
Month to date snowfall 3.0  
Year to date snowfall 12.2  
Since 1 July snowfall 4.5  
Snow Depth in   
Wind
Wind Speed 21 mph   
Max Wind Speed 31 mph   
Max Gust Speed 44 mph   
Visibility 10 miles   
Events     

Key: T is trace of precipitation, MM is missing value
Source: NWS Daily Summary
Time(PST)TemperatureDew PointHumidity Pressure Visibility Wind DirectionWind SpeedGust SpeedPrecipitationEvents Conditions
12:53 AM 48.9°F 36.0°F 61% 29.23 in 10.0 miles South 24.2 mph 34.5 mph 0.00 in   Mostly Cloudy
1:53 AM 48.9°F 35.1°F 59% 29.24 in 10.0 miles South 11.5 mph - N/A   Mostly Cloudy
2:53 AM 50.0°F 34.0°F 54% 29.26 in 10.0 miles SSW 15.0 mph - N/A   Overcast
4:53 AM 48.0°F 33.1°F 56% 29.30 in 10.0 miles SSW 17.3 mph 34.5 mph N/A   Clear
5:53 AM 48.9°F 30.0°F 48% 29.36 in 10.0 miles SSW 26.5 mph 38.0 mph N/A   Mostly Cloudy
6:53 AM 48.0°F 30.0°F 50% 29.42 in 10.0 miles SW 31.1 mph 41.4 mph N/A   Scattered Clouds
7:53 AM 46.9°F 30.9°F 54% 29.47 in 10.0 miles SW 25.3 mph 39.1 mph N/A   Overcast
8:53 AM 46.0°F 30.9°F 56% 29.52 in 10.0 miles SW 24.2 mph 42.6 mph N/A   Overcast
9:53 AM 46.0°F 32.0°F 58% 29.57 in 10.0 miles SW 26.5 mph 39.1 mph N/A   Overcast
10:53 AM 46.0°F 32.0°F 58% 29.60 in 10.0 miles SW 28.8 mph 43.7 mph N/A   Overcast
11:53 AM 45.0°F 32.0°F 60% 29.64 in 10.0 miles SW 29.9 mph 43.7 mph N/A   Scattered Clouds
12:53 PM 46.9°F 30.0°F 52% 29.67 in 10.0 miles SW 24.2 mph 40.3 mph N/A   Mostly Cloudy
1:53 PM 46.0°F 28.9°F 51% 29.69 in 10.0 miles SW 20.7 mph 39.1 mph N/A   Scattered Clouds
4:53 PM 39.9°F 27.0°F 60% 29.81 in 10.0 miles SW 15.0 mph 25.3 mph N/A   Partly Cloudy
5:53 PM 37.9°F 28.0°F 68% 29.84 in 10.0 miles SW 17.3 mph 24.2 mph N/A   Scattered Clouds
6:53 PM 36.0°F 28.0°F 73% 29.88 in 10.0 miles SSW 12.7 mph - N/A   Mostly Cloudy
7:53 PM 36.0°F 28.0°F 73% 29.90 in 10.0 miles SSW 17.3 mph - N/A   Clear
8:53 PM 36.0°F 26.1°F 67% 29.92 in 10.0 miles SSW 11.5 mph - N/A   Mostly Cloudy
9:53 PM 37.0°F 25.0°F 62% 29.93 in 10.0 miles SSW 16.1 mph 23.0 mph N/A   Mostly Cloudy
10:53 PM 35.1°F 23.0°F 61% 29.94 in 10.0 miles South 16.1 mph - N/A   Scattered Clouds
11:53 PM 34.0°F 21.9°F 61% 29.95 in 10.0 miles South 12.7 mph - N/A   Clear
Moon Phase
Dec. 17 Dec. 20 Dec. 28 Jan. 04 Jan. 11
Sunrise:07:30 AM (PST) Moon Rise:10:27 AM (PST)12/17
Sunset:04:08 PM (PST) Moon Set:09:51 PM (PST)12/17

Copyright © 2014 The Weather Underground, Inc.